This is the latest recevied weather packets stored in our database for station/object OK1PHM-12. If no packets are shown the sender has not sent any weather packets the latest 10 day(s).
| Time | Temp. | Humidity | Pressure | Rain* | Wind** | Luminosity | Snow |
|---|---|---|---|---|---|---|---|
| 1777556996 | 15.56° C | 28% | 1030 hPa | - | - | - | - |
| 1777556095 | 16.11° C | 26% | 1030.1 hPa | - | - | - | - |
| 1777555194 | 16.11° C | 27% | 1030.3 hPa | - | - | - | - |
| 1777554293 | 16.67° C | 26% | 1030.5 hPa | - | - | - | - |
| 1777553393 | 15.56° C | 26% | 1030.7 hPa | - | - | - | - |
| 1777552492 | 16.11° C | 26% | 1030.8 hPa | - | - | - | - |
| 1777551591 | 15° C | 28% | 1030.8 hPa | - | - | - | - |
| 1777550690 | 15.56° C | 27% | 1031 hPa | - | - | - | - |
| 1777549789 | 15° C | 28% | 1031 hPa | - | - | - | - |
| 1777548888 | 13.89° C | 28% | 1031.1 hPa | - | - | - | - |
| 1777547988 | 15° C | 29% | 1031.4 hPa | - | - | - | - |
| 1777547087 | 15° C | 31% | 1031.4 hPa | - | - | - | - |
| 1777546186 | 15.56° C | 30% | 1031.8 hPa | - | - | - | - |
| 1777545285 | 13.89° C | 31% | 1031.8 hPa | - | - | - | - |
| 1777544384 | 13.33° C | 32% | 1032.1 hPa | - | - | - | - |
| 1777543483 | 13.33° C | 32% | 1032.5 hPa | - | - | - | - |
| 1777542583 | 12.78° C | 33% | 1032.6 hPa | - | - | - | - |
| 1777541682 | 12.78° C | 33% | 1032.7 hPa | - | - | - | - |
| 1777540780 | 11.11° C | 34% | 1032.8 hPa | - | - | - | - |
| 1777539880 | 12.78° C | 34% | 1032.9 hPa | - | - | - | - |
| 1777538979 | 11.11° C | 35% | 1033.1 hPa | - | - | - | - |
| 1777538078 | 10.56° C | 35% | 1033.1 hPa | - | - | - | - |
| 1777537177 | 11.11° C | 38% | 1033.1 hPa | - | - | - | - |
| 1777536276 | 11.11° C | 37% | 1033.2 hPa | - | - | - | - |
| 1777533574 | 8.89° C | 42% | 1033.4 hPa | - | - | - | - |
* Rain since midnight (hover to see other rain measurements)
** Current wind speed in m/s (hover to see current wind gust speed)